User: anonymous   Login
Location: Fort Wayne
(41.1310°N, 85.1290°W)
Time: 21:53:31
(UTC-04:00)
Language:

Tiros 1 despin weight - Orbit

View from above orbital plane
View from above orbital plane
View from above satellite
View from above satellite

Ground track
Ground track

The orbit data is extracted from the following two-line orbital elements,

1 00115U 60002D   16210.58367972 -.00000010  00000-0  26311-4 0  9991
2 00115  48.1659 258.5201 0034158 114.6645 245.7830 14.82838221  2193
Epoch (UTC): 28 July 2016 14:00:29
Eccentricity: 0.0034158
inclination: 48.1659°
perigee height: 596 km
apogee height: 644 km
right ascension of ascending node: 258.5201°
argument of perigee: 114.6645°
revolutions per day: 14.82838221
mean anomaly at epoch: 245.7830°
orbit number at epoch: 219

The dashed part of the orbit path shows where the satellite is in the earth's shadow,  

DLR